(207552) = 2006 LL4

Discovered at Palomar on 2006-06-10 by NEAT.

Orbit

Orbit type: Main Belt

Note: WebGL enabled browser required.

epoch2024-03-31.0
epoch JD2460400.5
perihelion date2021-08-10.33509
perihelion JD2459436.83509
argument of perihelion (°)298.84864
ascending node (°)30.56630
inclination (°)3.01508
eccentricity0.3220444
perihelion distance (AU)1.9630319
Tisserand w.r.t. Jupiter3.2
ΔV w.r.t. Earth (km/sec)9.0
semimajor axis (AU)2.8955169
mean anomaly (°)192.77057
mean daily motion (°/day)0.20003900
aphelion distance (AU)3.828
period (years)4.93
P-vector [x]0.86025809
P-vector [y]-0.44754662
P-vector [z]-0.24424996
Q-vector [x]0.50915670
Q-vector [y]0.77921434
Q-vector [z]0.36549209
absolute magnitude15.68
phase slope0.15
uncertainty0
referenceMPEC 2024-E133
observations used752
oppositions18
arc length (days)8789
first opposition used2000
last opposition used2024
residual rms (arc-secs)0.66
perturbers coarse indicatorM-v
perturbers precise indicator003Ek
first observation date used2000-02-12.0
last observation date used2024-03-06.0
computer nameMPCLINUX
JD of orbit computation2456760.637235
perihelion JD uncertainty (days)3.2569E-05
argument of perihelion uncertainty (°)1.0967E-04
ascending node uncertainty (°)1.0950E-04
inclination uncertainty (°)4.2321E-06
eccentricity uncertainty 8.2863E-08
perihelion distance uncertainty (AU)2.3500E-07
Minimum Orbit Intersection Distances (in AU)
for orbit epoch: 2460400.5, reference: E2024-G88
Mercury1.55511
Venus1.23511
Earth0.95412
Mars0.58094
Jupiter1.54205
Saturn5.40496
Uranus14.6311
Neptune26.5367

Observations

760 total observations over interval: 2000 02 12.455920 – 2024 03 06.368139
These data are available for download (format description).

Date (UT) J2000 RA J2000 Dec Magn Location Ref
2000 02 12.455920 12 44 38.409 -02 38 02.94 21.41 V 645 – Apache Point-Sloan Digital Sky Survey MPS 174734
2000 02 12.459392 12 44 38.345 -02 38 02.64 22.27   645 – Apache Point-Sloan Digital Sky Survey MPS 174734
2000 05 05.280590 11 53 17.752 +02 14 40.33 21.31 V 645 – Apache Point-Sloan Digital Sky Survey MPS 174734
2000 05 05.284062 11 53 17.675 +02 14 40.54 22.09   645 – Apache Point-Sloan Digital Sky Survey MPS 174734
2001 06 16.30290 19 00 04.55 -27 42 19.6 18.4   704 – Lincoln Laboratory ETS, New Mexico MPS 174734
2001 06 16.32830 19 00 03.43 -27 42 22.6 18.6   704 – Lincoln Laboratory ETS, New Mexico MPS 174734
2001 06 16.34063 19 00 02.94 -27 42 25.3 18.7   704 – Lincoln Laboratory ETS, New Mexico MPS 174734
2001 06 16.35287 19 00 02.51 -27 42 26.6 18.7   704 – Lincoln Laboratory ETS, New Mexico MPS 174734
2002 12 04.36613 06 02 45.14 +26 58 59.1 19.5 R 695 – Kitt Peak MPS 174734
2002 12 04.47427 06 02 38.67 +26 59 04.5   695 – Kitt Peak MPS 174734
2005 03 11.37320 12 47 29.08 -03 13 18.9 20.6 R 695 – Kitt Peak MPS 174734
2005 03 11.47546 12 47 24.88 -03 12 54.8   695 – Kitt Peak MPS 174734
2005 05 06.19068 12 08 28.74 +00 21 21.8 19.9 R G96 – Mt. Lemmon Survey MPS 174734
2005 05 06.19866 12 08 28.52 +00 21 22.3 21.0 R G96 – Mt. Lemmon Survey MPS 174734
2005 05 06.20661 12 08 28.34 +00 21 23.5 20.9 R G96 – Mt. Lemmon Survey MPS 174734
2005 05 06.21456 12 08 28.10 +00 21 24.3 20.6 R G96 – Mt. Lemmon Survey MPS 174734
2006 05 26.43943 19 53 23.50 -25 10 10.2 19.2 R 644 – Palomar Mountain/NEAT MPS 174017
2006 05 26.45026 19 53 23.72 -25 10 10.7 19.0 R 644 – Palomar Mountain/NEAT MPS 174017
2006 05 26.46107 19 53 23.96 -25 10 11.7 18.7 R 644 – Palomar Mountain/NEAT MPS 174017
2006 06 10.34844 19 55 57.94 -25 40 05.2 19.3 R 644 – Palomar Mountain/NEAT MPS 174017
2006 06 10.36890 19 55 57.84 -25 40 08.9 18.8 R 644 – Palomar Mountain/NEAT MPS 174017
2006 06 10.38921 19 55 57.66 -25 40 12.2 18.7 R 644 – Palomar Mountain/NEAT MPS 174017
2006 06 18.36064 19 54 28.52 -26 02 53.5 18.5 R 644 – Palomar Mountain/NEAT MPS 174017
2006 06 18.37508 19 54 28.21 -26 02 56.3 18.2 R 644 – Palomar Mountain/NEAT MPS 174017
2006 06 18.38496 19 54 27.99 -26 02 58.1 18.3 R 644 – Palomar Mountain/NEAT MPS 174017
2006 06 23.31907 19 52 33.54 -26 18 38.0 18.4 C 704 – Lincoln Laboratory ETS, New Mexico MPS 294347
2006 06 23.32868 19 52 33.21 -26 18 40.8 18.8 C 704 – Lincoln Laboratory ETS, New Mexico MPS 294347
2006 06 23.33837 19 52 32.85 -26 18 43.1 18.5 C 704 – Lincoln Laboratory ETS, New Mexico MPS 294347
2006 06 23.34802 19 52 32.63 -26 18 44.8 18.7 C 704 – Lincoln Laboratory ETS, New Mexico MPS 294347
2006 06 30.26547 19 48 42.63 -26 41 41.3 18.3   704 – Lincoln Laboratory ETS, New Mexico MPS 174501
2006 06 30.27555 19 48 42.23 -26 41 41.5 18.6   704 – Lincoln Laboratory ETS, New Mexico MPS 174501
2006 06 30.28559 19 48 41.86 -26 41 44.4 18.6   704 – Lincoln Laboratory ETS, New Mexico MPS 174501
2006 06 30.29564 19 48 41.43 -26 41 46.8 18.4   704 – Lincoln Laboratory ETS, New Mexico MPS 174501
2006 06 30.30559 19 48 41.00 -26 41 47.7 18.7   704 – Lincoln Laboratory ETS, New Mexico MPS 174501
2006 07 18.27795 19 34 35.11 -27 33 46.6 17.5   704 – Lincoln Laboratory ETS, New Mexico MPS 174861
2006 07 18.28884 19 34 34.57 -27 33 48.9 18.2   704 – Lincoln Laboratory ETS, New Mexico MPS 174861
2006 07 18.29983 19 34 33.86 -27 33 49.3 18.4   704 – Lincoln Laboratory ETS, New Mexico MPS 174861
2006 07 18.31078 19 34 33.36 -27 33 50.3 18.1   704 – Lincoln Laboratory ETS, New Mexico MPS 174861
2006 07 18.32182 19 34 32.76 -27 33 51.8 17.7   704 – Lincoln Laboratory ETS, New Mexico MPS 174861
2006 07 21.22230 19 32 04.92 -27 39 45.2 17.6   704 – Lincoln Laboratory ETS, New Mexico MPS 174861
2006 07 21.23331 19 32 04.35 -27 39 46.4 17.6   704 – Lincoln Laboratory ETS, New Mexico MPS 174861
2006 07 21.24429 19 32 03.75 -27 39 47.5 17.9   704 – Lincoln Laboratory ETS, New Mexico MPS 174861
2006 07 21.25523 19 32 03.17 -27 39 49.3 17.7   704 – Lincoln Laboratory ETS, New Mexico MPS 174861
2006 07 21.26616 19 32 02.57 -27 39 50.6 17.5   704 – Lincoln Laboratory ETS, New Mexico MPS 174861
2006 07 23.21606 19 30 24.79 -27 43 13.9 16.8 R 644 – Palomar Mountain/NEAT MPS 175179
2006 07 23.23721 19 30 23.66 -27 43 15.7 17.2 R 644 – Palomar Mountain/NEAT MPS 175179
2006 07 23.25792 19 30 22.56 -27 43 17.9 17.3 R 644 – Palomar Mountain/NEAT MPS 175179
2007 12 16.26082 06 06 51.68 +27 10 39.3 20.3 V 691 – Steward Observatory, Kitt Peak-Spacewatch MPS 231351
2007 12 16.27847 06 06 50.56 +27 10 40.5 21.3 V 691 – Steward Observatory, Kitt Peak-Spacewatch MPS 231351
2007 12 16.29612 06 06 49.44 +27 10 40.6 20.1 V 691 – Steward Observatory, Kitt Peak-Spacewatch MPS 231351
2009 01 20.40310 10 05 15.21 +15 43 05.0 20.8 V 691 – Steward Observatory, Kitt Peak-Spacewatch MPS 272642
2009 01 20.42124 10 05 14.46 +15 43 09.2 20.8 V 691 – Steward Observatory, Kitt Peak-Spacewatch MPS 272642
2009 01 20.43937 10 05 13.77 +15 43 13.4 20.9 V 691 – Steward Observatory, Kitt Peak-Spacewatch MPS 272642
2009 01 30.30385 09 58 25.26 +16 22 29.9 20.8 V 691 – Steward Observatory, Kitt Peak-Spacewatch MPS 272642
2009 01 30.32148 09 58 24.41 +16 22 34.2 20.8 V 691 – Steward Observatory, Kitt Peak-Spacewatch MPS 272642
2009 01 30.33911 09 58 23.62 +16 22 37.9 20.8 V 691 – Steward Observatory, Kitt Peak-Spacewatch MPS 272642
2009 02 03.28532 09 55 23.02 +16 38 54.2 20.8 V 691 – Steward Observatory, Kitt Peak-Spacewatch MPS 272642
2009 02 03.30370 09 55 22.16 +16 38 59.1 20.6 V 691 – Steward Observatory, Kitt Peak-Spacewatch MPS 272642
2009 02 03.32183 09 55 21.28 +16 39 02.6 20.1 V 691 – Steward Observatory, Kitt Peak-Spacewatch MPS 272642
2010 03 23.03074 12 51 47.94 -03 55 46.0 20.9 R J04 – ESA Optical Ground Station, Tenerife MPS 320541
2010 03 23.05519 12 51 46.79 -03 55 40.1 20.7 R J04 – ESA Optical Ground Station, Tenerife MPS 320541
2010 03 23.07963 12 51 45.63 -03 55 33.4 20.9 R J04 – ESA Optical Ground Station, Tenerife MPS 320541
2010 04 11.360685 12 36 24.012 -02 29 17.27 20.48 r F51 – Pan-STARRS 1, Haleakala MPS 338803
2010 04 11.369681 12 36 23.589 -02 29 15.13 20.72 r F51 – Pan-STARRS 1, Haleakala MPS 338803
2010 04 11.39447 12 36 22.24 -02 29 09.0 20.5 V G96 – Mt. Lemmon Survey MPS 323340
2010 04 11.40324 12 36 21.81 -02 29 06.3 19.5 V G96 – Mt. Lemmon Survey MPS 323340
2010 04 11.41208 12 36 21.38 -02 29 04.5 19.9 V G96 – Mt. Lemmon Survey MPS 323340
2010 04 11.42095 12 36 20.91 -02 29 02.3 20.5 V G96 – Mt. Lemmon Survey MPS 323340
2010 04 12.30437 12 35 39.26 -02 25 12.9 20.5 V G96 – Mt. Lemmon Survey MPS 323340
2010 04 12.31103 12 35 38.97 -02 25 10.9 20.6 V G96 – Mt. Lemmon Survey MPS 323340
2010 04 12.31766 12 35 38.65 -02 25 09.4 20.3 V G96 – Mt. Lemmon Survey MPS 323340
2010 04 12.32426 12 35 38.32 -02 25 07.6 20.4 V G96 – Mt. Lemmon Survey MPS 323340
2010 04 17.402119 12 31 44.657 -02 03 54.03 21.20 g F51 – Pan-STARRS 1, Haleakala MPS 338803
2010 04 17.411355 12 31 44.231 -02 03 51.92 21.36 g F51 – Pan-STARRS 1, Haleakala MPS 338803
2010 05 11.18663 12 17 48.76 -00 53 48.8 20.8 V G96 – Mt. Lemmon Survey MPS 327263
2010 05 11.19420 12 17 48.58 -00 53 48.2 21.0 V G96 – Mt. Lemmon Survey MPS 327263
2010 05 11.20182 12 17 48.40 -00 53 47.4 20.9 V G96 – Mt. Lemmon Survey MPS 327263
2010 05 11.20944 12 17 48.22 -00 53 46.8 20.8 V G96 – Mt. Lemmon Survey MPS 327263
2011 06 30.33942 20 41 23.97 -23 58 42.6 18.5   704 – Lincoln Laboratory ETS, New Mexico MPS 386235
2011 06 30.35040 20 41 23.68 -23 58 44.4 19.4   704 – Lincoln Laboratory ETS, New Mexico MPS 386235
2011 06 30.36199 20 41 23.48 -23 58 46.5 18.9   704 – Lincoln Laboratory ETS, New Mexico MPS 386235
2011 06 30.37319 20 41 23.21 -23 58 49.2 19.5   704 – Lincoln Laboratory ETS, New Mexico MPS 386235
2011 06 30.38456 20 41 23.04 -23 58 52.0 18.6   704 – Lincoln Laboratory ETS, New Mexico MPS 386235
2011 07 27.70190 20 25 07.75 -25 27 07.1 17.5 V E12 – Siding Spring Survey MPS 387707
2011 07 27.71186 20 25 07.24 -25 27 08.4 17.5 V E12 – Siding Spring Survey MPS 387707
2011 07 27.72189 20 25 06.74 -25 27 09.9 17.5 V E12 – Siding Spring Survey MPS 387707
2011 07 27.73188 20 25 06.24 -25 27 11.3 17.4 V E12 – Siding Spring Survey MPS 387707
